Ypsilanti, MI

2:49 AM EDT on August 20, 2017 (GMT -0400)
Willow Run

Weather History for KYIP - December, 2013

Change the Weather History Date:

Wednesday, December 25, 2013

  Actual Average Record
Temperature  
Mean Temperature 20 °F -  
Max Temperature 28 °F 31 °F 62 °F (1982)
Min Temperature 12 °F 19 °F -10 °F (1983)
Degree Days  
Heating Degree Days 45    
Moisture  
Dew Point 15 °F    
Average Humidity 71    
Maximum Humidity 78    
Minimum Humidity 63    
Precipitation  
Precipitation 0.00 in - - ()
Sea Level Pressure  
Sea Level Pressure 30.30 in    
Wind  
Wind Speed 9 mph (South)    
Max Wind Speed 17 mph    
Max Gust Speed 25 mph    
Visibility 8 miles    
Events      
Averages and records for this station are not official NWS values.
T = Trace of Precipitation, MM = Missing Value Source: NWS Daily Summary

Daily Weather History Graph

Daily Weather History Graph

Search for Another Location

Airport or City:

Trip Planner

Search our weather history database for the weather conditions in past years. The results will help you decide how hot, cold, wet, or windy it might be!

Date:

Astronomy

Dec. 25, 2013 Rise Set
Actual Time 8:01 AM EST 5:07 PM EST
Civil Twilight 7:29 AM EST 5:39 PM EST
Nautical Twilight 6:54 AM EST 6:14 PM EST
Astronomical Twilight 6:20 AM EST 6:48 PM EST
Moon 12:21 AM EST (12/25) 12:16 PM EST (12/25)
Length of Visible Light 10h 09m
Length of Day
9h 05m
Waning Gibbous, 49% of the Moon is Illuminated
Dec 25
Waning Gibbous
Jan 1
New
Jan 7
First Quarter
Jan 15
Full
Jan 24
Last Quarter

Hourly Weather History & Observations

Time (EST) Temp. Windchill Dew Point Humidity Pressure Visibility Wind Dir Wind Speed Gust Speed Precip Events Conditions
12:53 AM 14.0 °F 6.5 °F 5.0 °F 67% 30.51 in 10.0 mi South 4.6 mph - N/A   Clear
1:53 AM 12.9 °F 6.9 °F 5.0 °F 71% 30.49 in 10.0 mi South 3.5 mph - N/A   Clear
2:53 AM 15.1 °F 9.4 °F 8.1 °F 74% 30.49 in 10.0 mi South 3.5 mph - N/A   Partly Cloudy
3:53 AM 17.1 °F 10.0 °F 10.9 °F 77% 30.47 in 10.0 mi South 4.6 mph - N/A   Overcast
4:53 AM 19.0 °F 9.0 °F 12.0 °F 74% 30.45 in 10.0 mi South 8.1 mph - N/A   Overcast
5:53 AM 19.9 °F 9.3 °F 12.9 °F 74% 30.43 in 10.0 mi South 9.2 mph - N/A   Overcast
6:53 AM 21.0 °F 9.3 °F 12.0 °F 68% 30.40 in 10.0 mi South 11.5 mph - N/A   Overcast
7:53 AM 21.0 °F 7.6 °F 12.0 °F 68% 30.39 in 10.0 mi South 15.0 mph - N/A   Overcast
8:53 AM 21.9 °F 10.4 °F 12.0 °F 66% 30.39 in 10.0 mi South 11.5 mph - N/A   Overcast
9:53 AM 23.0 °F 11.7 °F 12.0 °F 63% 30.39 in 10.0 mi South 11.5 mph - N/A   Overcast
10:38 AM 23.0 °F 11.7 °F 12.2 °F 63% 30.33 in 2.5 mi SSE 11.5 mph - N/A   Haze
10:46 AM 23.0 °F 9.2 °F 12.2 °F 63% 30.32 in 1.0 mi SSE 17.3 mph 25.3 mph N/A   Haze
10:53 AM 23.0 °F 10.6 °F 12.9 °F 65% 30.35 in 1.0 mi SSE 13.8 mph 25.3 mph N/A   Haze
11:38 AM 23.0 °F 11.7 °F 15.8 °F 74% 30.31 in 1.8 mi South 11.5 mph - N/A   Haze
11:53 AM 24.1 °F 12.0 °F 16.0 °F 71% 30.32 in 2.5 mi South 13.8 mph - N/A   Haze
12:00 PM 24.8 °F 14.0 °F 15.8 °F 69% 30.29 in 4.0 mi South 11.5 mph - N/A   Haze
12:38 PM 24.8 °F 15.3 °F 15.8 °F 69% 30.26 in 8.0 mi South 9.2 mph - N/A   Overcast
12:53 PM 24.1 °F 12.5 °F 16.0 °F 71% 30.29 in 7.0 mi South 12.7 mph - N/A   Overcast
1:53 PM 26.1 °F 15.6 °F 17.1 °F 69% 30.26 in 6.0 mi South 11.5 mph - N/A   Haze
2:53 PM 26.1 °F 16.8 °F 18.0 °F 71% 30.24 in 3.0 mi SSW 9.2 mph - N/A   Haze
3:53 PM 26.1 °F 16.2 °F 18.0 °F 71% 30.23 in 6.0 mi SSW 10.4 mph - N/A   Haze
4:53 PM 26.1 °F 17.6 °F 18.0 °F 71% 30.23 in 9.0 mi South 8.1 mph - N/A   Overcast
5:48 PM 26.6 °F 17.5 °F 19.4 °F 74% 30.20 in 10.0 mi South 9.2 mph - N/A   Overcast
5:53 PM 26.1 °F 16.2 °F 19.0 °F 75% 30.22 in 9.0 mi SSW 10.4 mph - N/A   Overcast
6:53 PM 27.0 °F 18.0 °F 19.0 °F 72% 30.21 in 10.0 mi South 9.2 mph - N/A   Overcast
7:03 PM 26.6 °F 17.5 °F 19.4 °F 74% 30.19 in 10.0 mi South 9.2 mph - N/A   Overcast
7:33 PM 26.6 °F 16.8 °F 19.4 °F 74% 30.18 in 10.0 mi SSW 10.4 mph - N/A   Overcast
7:53 PM 27.0 °F 18.7 °F 19.9 °F 75% 30.21 in 10.0 mi SSW 8.1 mph - N/A   Overcast
8:53 PM 27.0 °F 18.0 °F 19.9 °F 75% 30.19 in 10.0 mi SSW 9.2 mph - N/A   Overcast
9:53 PM 27.0 °F 18.0 °F 21.0 °F 78% 30.18 in 8.0 mi SSW 9.2 mph - N/A   Overcast
10:53 PM 28.0 °F 18.1 °F 21.0 °F 75% 30.15 in 8.0 mi SSW 11.5 mph - N/A   Overcast
11:53 PM 28.0 °F 18.1 °F 21.9 °F 78% 30.13 in 7.0 mi SSW 11.5 mph - N/A   Overcast